RH
41 37 38 42 44 43 44 45 49 52 56 56 55 59 70 62 59 62 71 69 69 68
40 43 44 47 46 44 46 42 48 55 58 57 56 60 60 56 61 62 68 68 67 67
41 42 45 46 48 49 48 48 51 55 58 56 57 56 59 57 62 61 63 62 67 70
45 45 45 45 47 48 50 48 51 54 56 58 57 57 59 61 60 62 64 65 69 72
47 46 46 48 48 51 50 50 51 52 56 60 59 59 61 66 60 68 72 73 70 70
50 49 48 49 50 49 49 49 50 53 59 62 64 63 66 59 66 70 72 72 74 74
48 49 48 49 50 51 48 48 50 55 58 63 59 59 63 62 72 75 69 79 75 74
45 44 45 49 51 48 48 46 47 51 57 60 58 64 74 69 75 76 84 81 68 77
42 41 43 44 44 44 46 45 45 48 54 60 47 69 65 72 82 79 78 82 80 74
39 40 40 38 38 42 43 42 44 46 51 51 49 64 65 65 78 80 83 82 81 78
39 38 36 39 39 41 40 40 39 41 44 46 38 59 65 69 55 60 73 79 80 85
39 38 37 39 41 39 39 39 39 38 42 42 42 57 64 64 55 57 59 59 69 77
38 37 38 40 40 39 37 36 35 39 41 48 42 54 64 62 59 64 66 62 62 63
36 36 36 39 38 38 37 39 42 46 42 41 46 49 66 64 62 69 72 68 69 66
Wind_Speed
7 6 6 8 8 8 8 9 12 12 13 15 14 11 11 10 10 11 9 15 11 10
7 8 7 9 8 7 9 10 11 12 13 14 12 12 13 10 11 11 11 12 12 11
7 7 8 7 9 10 10 11 12 12 13 14 12 14 14 12 11 14 11 11 14 14
6 7 7 7 9 9 11 11 11 11 12 14 13 14 13 14 14 16 15 15 15 16
6 6 6 7 8 9 11 10 11 11 12 12 13 13 14 13 15 16 16 16 16 16
5 6 7 8 9 10 10 11 11 11 11 12 13 14 11 14 15 17 16 16 16 16
5 6 7 8 9 9 10 10 11 10 11 11 13 12 12 16 16 16 16 15 15 15
5 6 7 7 9 9 10 10 10 9 9 11 12 8 12 15 17 18 17 13 15 13
5 6 7 7 9 9 10 10 11 10 9 12 10 11 17 19 16 19 16 13 13 14
6 6 7 8 9 10 10 11 11 11 11 13 13 15 19 23 16 15 13 14 14 12
6 7 8 8 9 10 10 11 11 11 12 12 11 16 19 23 18 15 15 15 15 13
6 7 8 8 9 9 10 10 10 11 13 13 13 18 20 21 17 16 18 16 16 14
6 7 7 8 9 9 10 10 10 11 13 13 13 18 20 21 13 15 14 17 17 20
6 7 7 8 8 9 10 10 11 12 13 14 14 15 20 25 15 13 13 13 12 13
Wind_Direction
357 350 336 349 335 325 334 330 338 347 331 320 328 334 316 317 320 320 319 310 305 304
356 349 342 335 330 338 329 334 341 334 325 320 328 333 315 318 320 331 317 307 310 308
349 348 337 331 336 335 334 327 342 339 324 319 335 328 324 329 335 318 328 315 312 304
347 340 338 335 337 342 326 338 337 325 332 326 335 331 325 337 324 328 319 313 309 306
340 336 346 343 336 342 330 336 334 335 337 325 335 325 332 338 331 322 320 313 311 309
334 339 344 343 341 332 334 332 338 342 336 332 331 322 338 340 329 321 317 315 311 311
344 341 344 341 335 332 331 331 337 340 332 336 319 330 347 337 327 321 315 310 314 312
350 341 345 340 327 333 330 330 332 335 340 336 320 12 350 341 329 318 311 311 319 315
347 346 346 337 332 333 330 332 333 334 360 327 326 14 352 345 327 311 312 320 322 319
356 344 344 342 338 336 334 333 332 336 3 322 331 20 353 344 318 317 320 328 322 323
357 346 346 341 340 335 338 332 338 338 344 327 343 16 354 345 327 325 330 329 322 327
356 349 341 345 338 338 334 336 338 345 334 335 334 9 352 344 336 332 331 327 326 329
0 349 345 338 335 339 334 339 336 345 334 344 345 355 351 347 333 333 331 326 322 331
2 353 345 339 340 345 342 342 343 340 339 343 351 348 350 347 340 337 327 324 323 329